�N����,����,�~����,�C��,���x,�C��,����,���ϕ���,�ő�u�ԕ���,�ő厞����,���˗�,�I�_���x,�n�����x,�ő啗���N��,DTYPE
"19/12/31","00:10",0.0,10.2,98.0,1012.3,295.7,1.0,1.3,308.5,0.00,9.9,10.2,"00:04:48",1
"19/12/31","00:20",0.0,10.2,98.0,1012.6,288.9,1.0,1.3,311.4,0.00,9.9,10.0,"00:15:04",1
"19/12/31","00:30",0.0,10.3,97.9,1012.3,270.3,1.0,1.6,312.6,0.00,10.0,10.2,"00:20:02",1
"19/12/31","00:40",0.0,10.1,98.4,1012.6,286.7,0.8,1.8,313.5,0.00,9.9,10.2,"00:31:44",1
"19/12/31","00:50",0.0,10.3,98.0,1012.3,299.1,0.7,1.1,328.5,0.00,10.0,10.2,"00:41:52",1
"19/12/31","01:00",0.0,10.3,97.9,1012.1,284.3,0.6,1.1,302.5,0.00,10.0,10.0,"00:52:16",1
"19/12/31","01:10",0.0,10.1,98.4,1011.9,301.8,1.1,1.8,320.6,0.00,9.9,10.0,"01:09:04",1
"19/12/31","01:20",0.0,10.2,98.0,1012.1,302.0,1.2,2.1,322.1,0.00,9.9,10.2,"01:15:28",1
"19/12/31","01:30",0.0,10.1,98.0,1012.1,281.7,0.7,1.1,251.7,0.00,9.8,10.2,"01:20:08",1
"19/12/31","01:40",0.0,10.0,98.0,1012.3,308.1,1.2,2.0,320.0,0.00,9.7,10.1,"01:35:28",1
"19/12/31","01:50",0.0,9.8,98.0,1011.9,279.7,0.7,1.3,312.8,0.00,9.5,10.1,"01:42:00",1
"19/12/31","02:00",0.0,9.8,98.1,1011.9,284.8,0.5,1.7,319.4,0.00,9.6,10.2,"01:59:52",1
"19/12/31","02:10",0.0,9.7,98.1,1011.9,308.4,1.7,2.1,322.1,0.00,9.5,10.1,"02:00:48",1
"19/12/31","02:20",0.0,9.7,98.2,1011.9,312.4,1.1,1.9,321.8,0.00,9.5,10.0,"02:15:52",1
"19/12/31","02:30",0.0,9.6,98.1,1012.1,265.4,0.2,0.8,272.6,0.00,9.4,10.2,"02:20:02",1
"19/12/31","02:40",0.0,9.5,98.1,1012.1,289.6,1.2,1.9,309.7,0.00,9.3,10.1,"02:37:28",1
"19/12/31","02:50",0.0,9.4,98.1,1012.3,319.9,1.3,1.8,325.3,0.00,9.2,10.0,"02:40:24",1
"19/12/31","03:00",0.0,9.0,98.1,1011.9,282.4,0.8,1.6,287.3,0.00,8.8,10.2,"02:57:20",1
"19/12/31","03:10",0.0,8.7,98.3,1012.1,306.0,1.3,2.0,316.5,0.00,8.5,9.9,"03:05:12",1
"19/12/31","03:20",0.0,8.8,98.3,1011.9,314.8,1.7,2.2,323.0,0.00,8.6,9.9,"03:13:28",1
"19/12/31","03:30",0.0,8.8,98.3,1011.9,321.0,1.8,2.4,333.6,0.00,8.6,9.8,"03:25:20",1
"19/12/31","03:40",0.0,8.8,98.4,1012.1,308.8,1.6,2.2,317.2,0.00,8.6,9.9,"03:30:24",1
"19/12/31","03:50",0.0,9.1,98.4,1011.9,318.4,2.1,2.4,326.9,0.00,8.9,9.7,"03:46:00",1
"19/12/31","04:00",0.0,9.2,98.3,1011.9,280.2,1.1,1.4,294.7,0.00,9.0,9.9,"03:50:08",1
"19/12/31","04:10",0.0,9.3,98.3,1011.6,254.4,0.6,1.8,259.8,0.00,9.1,9.9,"04:00:40",1
"19/12/31","04:20",0.0,9.3,98.3,1011.6,292.7,1.0,1.2,302.5,0.00,9.1,9.9,"04:14:48",1
"19/12/31","04:30",0.0,9.3,98.3,1011.6,311.6,1.0,1.6,304.4,0.00,9.1,9.9,"04:29:44",1
"19/12/31","04:40",0.0,9.2,98.3,1011.6,295.4,1.2,1.8,312.6,0.00,9.0,9.8,"04:30:56",1
"19/12/31","04:50",0.0,9.2,98.3,1011.9,289.0,1.3,1.9,309.5,0.00,9.0,9.7,"04:48:56",1
"19/12/31","05:00",0.0,9.2,98.3,1011.9,298.0,1.5,1.8,317.2,0.00,9.0,9.9,"04:57:52",1
"19/12/31","05:10",0.0,9.1,98.3,1011.6,317.7,1.5,2.1,323.3,0.00,8.9,9.8,"05:05:28",1
"19/12/31","05:20",0.0,8.6,98.3,1011.4,303.6,1.5,2.5,324.2,0.00,8.4,10.0,"05:16:24",1
"19/12/31","05:30",0.0,8.2,98.4,1011.6,298.4,1.5,2.1,317.6,0.00,8.0,9.7,"05:26:56",1
"19/12/31","05:40",0.0,7.9,98.5,1011.6,285.7,1.0,1.4,291.4,0.00,7.7,9.8,"05:30:16",1
"19/12/31","05:50",0.0,7.7,98.5,1011.4,317.9,1.8,2.7,315.7,0.00,7.5,9.7,"05:46:48",1
"19/12/31","06:00",0.0,7.3,98.6,1011.4,298.3,1.2,2.0,316.5,0.00,7.1,9.7,"05:57:52",1
"19/12/31","06:10",0.0,7.3,98.7,1011.6,306.1,1.2,1.7,315.1,0.00,7.1,9.6,"06:04:56",1
"19/12/31","06:20",0.0,7.3,98.9,1011.4,318.9,1.2,2.2,331.3,0.00,7.2,9.4,"06:19:52",1
"19/12/31","06:30",0.0,7.4,98.7,1011.6,313.1,1.3,2.0,322.3,0.00,7.2,9.6,"06:21:04",1
"19/12/31","06:40",0.0,7.3,98.8,1011.4,301.4,1.0,1.7,318.6,0.00,7.2,9.5,"06:35:12",1
"19/12/31","06:50",0.0,7.1,98.7,1011.6,280.9,0.3,0.9,281.2,0.00,6.9,9.4,"06:44:08",1
"19/12/31","07:00",0.0,6.9,98.8,1011.9,324.5,1.5,1.9,331.4,0.00,6.8,9.3,"06:54:16",1
"19/12/31","07:10",0.0,6.4,98.8,1011.9,298.9,1.0,1.6,317.2,0.00,6.3,9.3,"07:00:48",1
"19/12/31","07:20",0.0,6.3,99.0,1011.9,294.8,1.0,1.3,315.9,0.00,6.2,9.2,"07:11:52",1
"19/12/31","07:30",0.0,6.6,99.0,1011.9,295.1,1.1,1.9,321.4,0.00,6.5,9.1,"07:29:04",1
"19/12/31","07:40",0.0,7.0,99.0,1012.3,304.3,1.3,1.9,316.3,0.00,6.9,9.2,"07:30:08",1
"19/12/31","07:50",0.0,7.4,98.9,1012.3,301.9,1.0,1.6,308.6,0.00,7.3,9.2,"07:49:36",1
"19/12/31","08:00",0.0,7.7,98.7,1012.8,267.0,0.8,1.4,254.2,0.00,7.5,9.2,"07:54:16",1
"19/12/31","08:10",0.0,7.8,98.8,1012.6,300.5,1.1,1.8,313.5,0.00,7.7,9.1,"08:07:36",1
"19/12/31","08:20",0.0,7.7,98.8,1012.6,305.0,1.6,2.5,318.8,0.00,7.6,8.9,"08:16:00",1
"19/12/31","08:30",0.0,8.0,98.8,1012.8,279.1,1.2,1.7,305.2,0.01,7.9,9.2,"08:24:00",1
"19/12/31","08:40",0.0,8.5,98.7,1012.8,258.4,1.3,1.8,249.1,0.01,8.3,9.1,"08:34:08",1
"19/12/31","08:50",0.0,8.5,98.7,1012.8,190.0,0.2,1.1,269.5,0.04,8.3,9.0,"08:40:16",1
"19/12/31","09:00",0.0,9.3,98.7,1012.8,297.1,1.1,2.2,313.5,0.08,9.1,9.3,"08:59:52",1
"19/12/31","09:10",0.0,9.9,98.6,1013.3,296.8,1.3,2.6,320.2,0.11,9.7,9.3,"09:04:08",1
"19/12/31","09:20",0.0,10.2,98.3,1013.5,230.2,0.3,0.9,256.1,0.08,10.0,9.4,"09:10:48",1
"19/12/31","09:30",0.0,10.5,98.3,1013.3,239.5,0.3,0.8,260.9,0.05,10.3,9.3,"09:20:32",1
"19/12/31","09:40",0.0,10.5,98.1,1013.5,264.7,0.8,1.6,276.5,0.00,10.3,9.4,"09:38:40",1
"19/12/31","09:50",0.0,10.2,97.9,1013.8,249.1,1.7,2.7,241.9,0.00,9.9,9.6,"09:42:56",1
"19/12/31","10:00",0.0,10.2,98.6,1014.2,273.6,1.3,2.4,292.5,0.00,10.0,9.6,"09:59:20",1
"19/12/31","10:10",0.0,10.4,98.3,1014.0,306.5,1.6,3.4,340.4,0.00,10.2,9.7,"10:00:56",1
"19/12/31","10:20",0.0,10.4,98.2,1014.0,275.4,1.6,2.7,294.8,0.01,10.2,9.6,"10:19:28",1
"19/12/31","10:30",0.0,10.5,98.2,1014.0,281.9,1.7,3.1,310.6,0.02,10.3,9.6,"10:28:08",1
"19/12/31","10:40",0.0,10.6,98.2,1014.5,297.0,1.7,2.6,284.2,0.01,10.4,9.9,"10:31:20",1
"19/12/31","10:50",0.0,10.0,98.0,1014.5,307.8,2.3,5.2,313.2,0.01,9.7,9.8,"10:40:02",1
"19/12/31","11:00",0.0,9.4,97.6,1014.2,316.3,2.1,5.2,330.3,0.01,9.1,9.7,"10:55:04",1
"19/12/31","11:10",0.0,8.7,97.4,1014.7,303.4,3.4,6.7,328.6,0.01,8.4,9.8,"11:01:36",1
"19/12/31","11:20",0.0,8.6,97.0,1014.7,307.6,4.4,7.3,340.4,0.05,8.2,9.8,"11:15:44",1
"19/12/31","11:30",0.0,9.1,96.4,1015.4,315.0,5.1,9.5,326.9,0.19,8.6,10.0,"11:20:24",1
"19/12/31","11:40",0.0,9.8,95.4,1015.2,308.1,4.7,9.3,309.2,0.29,9.1,9.7,"11:38:24",1
"19/12/31","11:50",0.0,10.4,93.2,1015.2,313.5,5.2,10.9,317.9,0.37,9.4,10.0,"11:46:20",1
"19/12/31","12:00",0.0,10.9,89.7,1014.7,316.2,5.1,10.0,341.3,0.34,9.3,10.0,"11:54:56",1
"19/12/31","12:10",0.0,11.3,82.2,1014.7,319.1,4.7,11.0,346.6,0.40,8.4,10.0,"12:02:00",1
"19/12/31","12:20",0.0,11.3,75.6,1014.2,315.8,3.5,8.6,320.0,0.35,7.2,10.1,"12:15:06",1
"19/12/31","12:30",0.0,11.7,71.5,1014.2,319.0,4.9,10.3,340.2,0.49,6.8,10.5,"12:21:28",1
"19/12/31","12:40",0.0,11.7,69.2,1014.7,303.7,4.2,10.2,340.4,0.41,6.3,10.5,"12:35:44",1
"19/12/31","12:50",0.0,11.0,68.8,1014.9,313.8,4.6,9.3,327.7,0.21,5.5,10.7,"12:41:44",1
"19/12/31","13:00",0.0,10.5,69.1,1014.9,331.4,4.6,10.2,336.6,0.15,5.1,10.5,"12:55:52",1
"19/12/31","13:10",0.0,9.4,72.7,1015.2,336.6,4.0,8.3,333.0,0.05,4.8,10.8,"13:04:26",1
"19/12/31","13:20",0.0,8.6,73.1,1014.9,325.7,7.1,11.8,320.3,0.11,4.1,10.7,"13:11:38",1
"19/12/31","13:30",0.0,9.0,70.2,1014.7,323.9,7.1,13.6,334.6,0.31,3.9,10.7,"13:29:52",1
"19/12/31","13:40",0.2,9.0,67.5,1014.9,314.2,6.5,14.2,340.2,0.22,3.4,10.7,"13:38:50",1
"19/12/31","13:50",0.0,8.6,66.2,1015.2,322.6,7.1,12.1,326.3,0.17,2.7,10.7,"13:42:56",1
"19/12/31","14:00",0.0,8.3,64.4,1014.9,322.6,7.1,13.5,335.9,0.14,2.0,10.6,"13:59:14",1
"19/12/31","14:10",0.0,8.2,63.6,1015.2,324.6,7.5,11.1,340.0,0.16,1.8,10.5,"14:06:36",1
"19/12/31","14:20",0.0,8.9,63.3,1015.6,325.9,6.0,11.1,324.7,0.33,2.4,10.6,"14:15:24",1
"19/12/31","14:30",0.0,9.2,61.9,1015.6,315.2,5.5,9.0,341.1,0.32,2.3,10.6,"14:22:40",1
"19/12/31","14:40",0.0,8.8,56.6,1015.6,325.4,6.2,13.7,335.6,0.30,0.7,10.7,"14:39:00",1
"19/12/31","14:50",0.0,9.0,53.4,1015.4,308.3,4.9,9.4,347.6,0.28,0.1,10.4,"14:42:50",1
"19/12/31","15:00",0.0,9.2,53.6,1015.6,311.9,4.0,7.4,344.4,0.26,0.3,10.5,"14:52:08",1
"19/12/31","15:10",0.0,9.4,53.7,1015.9,310.3,3.2,5.8,328.6,0.26,0.5,10.7,"15:07:52",1
"19/12/31","15:20",0.0,8.7,56.2,1016.1,327.5,3.4,7.0,300.9,0.11,0.5,10.6,"15:12:08",1
"19/12/31","15:30",0.0,9.1,58.9,1016.4,329.1,3.2,6.5,323.5,0.21,1.5,10.6,"15:25:12",1
"19/12/31","15:40",0.0,7.8,61.9,1016.4,331.5,5.0,10.1,342.1,0.08,1.0,10.7,"15:30:48",1
"19/12/31","15:50",0.0,7.2,65.8,1016.6,327.6,4.6,9.0,329.8,0.07,1.3,10.5,"15:43:46",1
"19/12/31","16:00",0.0,7.1,68.2,1016.4,308.4,3.5,5.8,332.7,0.06,1.7,10.5,"15:52:32",1
"19/12/31","16:10",0.0,6.5,71.2,1016.8,331.7,3.2,6.8,329.7,0.02,1.7,10.5,"16:07:58",1
"19/12/31","16:20",0.0,5.9,74.0,1016.4,311.6,2.7,4.3,304.5,0.01,1.7,10.2,"16:16:54",1
"19/12/31","16:30",0.2,5.6,76.3,1016.4,304.6,2.0,4.4,321.6,0.04,1.8,10.5,"16:20:08",1
"19/12/31","16:40",0.0,5.5,78.0,1016.8,307.9,2.6,7.0,311.4,0.03,2.0,10.0,"16:35:18",1
"19/12/31","16:50",0.0,5.3,79.6,1017.1,333.1,2.1,4.5,343.7,0.00,2.1,10.1,"16:41:50",1
"19/12/31","17:00",0.0,5.3,81.1,1016.8,307.2,1.8,4.2,240.9,0.00,2.4,10.2,"16:59:50",1
"19/12/31","17:10",0.0,5.0,82.4,1017.3,314.9,3.4,6.5,334.5,0.00,2.3,10.0,"17:01:44",1
"19/12/31","17:20",0.2,4.7,83.5,1017.1,308.2,3.9,7.0,326.6,0.00,2.2,10.0,"17:12:42",1
"19/12/31","17:30",0.2,4.4,84.6,1017.5,323.2,2.6,4.5,336.3,0.00,2.1,9.7,"17:23:04",1
"19/12/31","17:40",0.0,4.2,85.3,1017.1,292.2,1.5,2.1,317.3,0.00,2.0,9.8,"17:30:08",1
"19/12/31","17:50",0.0,4.2,85.9,1017.5,301.9,1.6,2.7,312.1,0.00,2.1,9.4,"17:45:12",1
"19/12/31","18:00",0.2,4.2,86.5,1017.5,308.5,1.7,2.9,320.5,0.00,2.2,9.8,"17:57:54",1
"19/12/31","18:10",0.0,4.2,87.0,1017.5,290.5,1.6,2.6,310.3,0.00,2.3,9.7,"18:00:24",1
"19/12/31","18:20",0.0,4.2,87.6,1017.5,286.8,2.0,3.2,302.9,0.00,2.4,9.6,"18:14:10",1
"19/12/31","18:30",0.0,4.2,88.1,1017.5,303.8,2.5,4.3,326.9,0.00,2.4,9.4,"18:26:14",1
"19/12/31","18:40",0.0,4.2,88.6,1017.8,309.4,2.5,3.5,327.7,0.00,2.5,9.4,"18:31:20",1
"19/12/31","18:50",0.0,4.1,89.1,1018.0,307.3,2.0,2.8,293.5,0.00,2.5,9.4,"18:40:16",1
"19/12/31","19:00",0.0,4.0,89.5,1018.0,295.6,1.7,2.5,302.5,0.00,2.5,9.5,"18:57:12",1
"19/12/31","19:10",0.0,4.1,90.0,1018.0,309.6,2.1,3.1,322.1,0.00,2.6,9.2,"19:08:14",1
"19/12/31","19:20",0.0,4.0,90.3,1018.2,285.3,2.0,2.6,316.1,0.00,2.6,9.3,"19:12:18",1
"19/12/31","19:30",0.0,3.9,90.7,1018.2,314.0,2.1,4.1,327.2,0.00,2.6,9.3,"19:23:48",1
"19/12/31","19:40",0.0,3.9,90.9,1018.2,306.0,2.1,2.7,324.3,0.00,2.6,9.1,"19:30:24",1
"19/12/31","19:50",0.0,3.8,91.2,1018.5,303.9,2.7,4.4,332.3,0.00,2.5,8.9,"19:47:36",1
"19/12/31","20:00",0.0,3.8,91.1,1018.7,291.5,2.6,4.5,325.7,0.00,2.5,8.9,"19:56:12",1
"19/12/31","20:10",0.0,3.8,90.8,1019.0,315.0,3.0,4.1,316.3,0.00,2.5,9.0,"20:00:24",1
"19/12/31","20:20",0.0,3.7,90.2,1019.0,315.3,3.0,4.9,310.9,0.00,2.3,8.8,"20:17:34",1
"19/12/31","20:30",0.0,3.8,89.3,1019.0,321.4,3.0,5.0,332.6,0.00,2.2,9.0,"20:20:16",1
"19/12/31","20:40",0.0,4.1,88.2,1019.0,317.3,1.7,2.9,358.1,0.00,2.4,8.8,"20:34:58",1
"19/12/31","20:50",0.0,3.6,87.2,1019.2,328.3,2.1,3.4,309.0,0.00,1.7,8.7,"20:47:48",1
"19/12/31","21:00",0.0,4.0,86.1,1019.2,321.2,2.7,5.4,332.1,0.00,1.9,8.8,"20:54:48",1
"19/12/31","21:10",0.0,3.9,85.0,1019.4,323.4,2.3,3.9,332.3,0.00,1.7,8.6,"21:02:50",1
"19/12/31","21:20",0.0,3.7,83.8,1019.2,316.9,2.6,4.3,323.0,0.00,1.3,8.7,"21:17:34",1
"19/12/31","21:30",0.0,3.9,82.0,1019.4,318.7,2.7,3.9,314.9,0.00,1.2,8.6,"21:26:40",1
"19/12/31","21:40",0.0,4.1,79.8,1019.2,307.0,2.8,5.4,331.6,0.00,1.0,8.8,"21:36:44",1
"19/12/31","21:50",0.0,4.1,78.6,1019.4,317.4,2.5,3.6,307.6,0.00,0.8,8.5,"21:42:38",1
"19/12/31","22:00",0.0,3.8,78.6,1019.4,329.7,3.0,4.9,331.5,0.00,0.5,8.5,"21:57:10",1
"19/12/31","22:10",0.0,3.8,78.3,1019.7,316.1,2.3,3.2,321.4,0.00,0.4,8.6,"22:05:00",1
"19/12/31","22:20",0.0,3.9,77.1,1019.2,313.3,2.6,4.8,333.1,0.00,0.3,8.6,"22:10:28",1
"19/12/31","22:30",0.0,4.0,76.1,1019.7,327.0,1.6,2.4,323.8,0.00,0.2,8.5,"22:26:56",1
"19/12/31","22:40",0.0,3.9,76.1,1019.4,299.0,1.3,2.1,325.1,0.00,0.1,8.5,"22:30:08",1
"19/12/31","22:50",0.0,3.8,77.6,1019.7,332.4,1.5,2.4,339.1,0.00,0.3,8.4,"22:48:56",1
"19/12/31","23:00",0.0,3.5,79.4,1019.7,326.4,1.6,2.5,328.2,0.00,0.3,8.3,"22:58:18",1
"19/12/31","23:10",0.0,3.3,80.6,1019.4,305.8,2.0,3.4,315.7,0.00,0.3,8.4,"23:07:08",1
"19/12/31","23:20",0.0,3.5,81.3,1019.4,315.6,2.3,3.4,330.3,0.00,0.6,8.3,"23:14:02",1
"19/12/31","23:30",0.0,3.5,81.8,1019.2,302.1,1.5,2.0,302.9,0.00,0.7,8.2,"23:23:48",1
"19/12/31","23:40",0.0,3.5,81.9,1019.2,317.0,2.6,4.8,319.5,0.00,0.7,8.2,"23:38:28",1
"19/12/31","23:50",0.0,3.8,80.8,1019.9,323.7,2.8,5.5,332.9,0.00,0.8,8.2,"23:42:32",1
"19/12/31","24:00",0.0,3.8,80.1,1019.7,308.9,1.7,2.6,303.2,0.00,0.7,8.1,"23:50:40",1
